Total_Precipitation_Accumulation
0.00 0.01 0.03 0.07 0.16 0.33 0.33 0.09 0.04 0.02 0.01 0.01 0.01 0.00 0.00 0.00 0.02 0.07 0.01 0.00 0.00 0.00 0.00 0.01 0.01 0.00 0.00 0.00 0.00 0.00 0.00 0.00 0.01 0.00 0.00 0.00 0.00 0.00 0.00 0.01 0.01 0.01 0.01 0.02 0.01 0.01 0.01 0.01 0.00
0.00 0.01 0.03 0.09 0.16 0.27 0.16 0.06 0.02 0.01 0.01 0.01 0.01 0.00 0.00 0.00 0.00 0.00 0.00 0.00 0.00 0.00 0.00 0.00 0.00 0.00 0.00 0.00 0.00 0.00 0.00 0.01 0.01 0.01 0.01 0.00 0.00 0.00 0.01 0.01 0.01 0.01 0.02 0.03 0.02 0.01 0.01 0.00 0.00
0.00 0.00 0.02 0.06 0.12 0.16 0.11 0.03 0.02 0.01 0.01 0.01 0.01 0.00 0.00 0.00 0.00 0.00 0.00 0.00 0.00 0.00 0.00 0.00 0.01 0.00 0.00 0.00 0.00 0.01 0.01 0.01 0.01 0.01 0.01 0.01 0.01 0.01 0.01 0.01 0.02 0.02 0.03 0.03 0.02 0.01 0.01 0.00 0.00
0.00 0.00 0.00 0.02 0.06 0.13 0.09 0.05 0.06 0.05 0.02 0.01 0.01 0.01 0.00 0.00 0.00 0.00 0.00 0.00 0.00 0.00 0.00 0.00 0.01 0.01 0.00 0.00 0.01 0.01 0.01 0.02 0.02 0.01 0.01 0.01 0.01 0.02 0.02 0.02 0.02 0.02 0.03 0.03 0.02 0.02 0.01 0.00 0.00
0.00 0.00 0.00 0.01 0.04 0.10 0.09 0.08 0.09 0.08 0.03 0.03 0.02 0.02 0.01 0.01 0.01 0.00 0.00 0.00 0.00 0.00 0.00 0.00 0.01 0.01 0.01 0.00 0.00 0.01 0.01 0.01 0.01 0.01 0.01 0.02 0.02 0.02 0.02 0.03 0.02 0.02 0.03 0.03 0.02 0.01 0.01 0.01 0.00
0.00 0.00 0.00 0.01 0.02 0.04 0.05 0.07 0.10 0.10 0.06 0.04 0.03 0.03 0.02 0.03 0.03 0.01 0.00 0.00 0.00 0.00 0.00 0.01 0.01 0.01 0.01 0.01 0.01 0.01 0.01 0.01 0.01 0.01 0.01 0.02 0.02 0.03 0.03 0.03 0.03 0.03 0.03 0.02 0.02 0.01 0.01 0.01 0.01
0.00 0.00 0.00 0.00 0.02 0.04 0.05 0.07 0.12 0.11 0.08 0.06 0.07 0.10 0.08 0.07 0.04 0.02 0.02 0.01 0.00 0.00 0.00 0.01 0.01 0.01 0.02 0.01 0.01 0.01 0.02 0.02 0.02 0.01 0.02 0.02 0.02 0.02 0.03 0.03 0.04 0.05 0.06 0.04 0.03 0.02 0.02 0.02 0.03
0.00 0.00 0.00 0.00 0.01 0.03 0.05 0.06 0.08 0.08 0.10 0.08 0.14 0.20 0.17 0.08 0.04 0.03 0.04 0.04 0.02 0.01 0.01 0.01 0.01 0.02 0.02 0.02 0.02 0.02 0.02 0.02 0.02 0.02 0.02 0.02 0.02 0.03 0.03 0.04 0.04 0.05 0.07 0.07 0.06 0.06 0.07 0.07 0.08
0.00 0.00 0.00 0.00 0.00 0.01 0.03 0.05 0.05 0.07 0.08 0.09 0.13 0.16 0.15 0.05 0.03 0.03 0.04 0.06 0.07 0.05 0.03 0.02 0.03 0.04 0.04 0.03 0.04 0.05 0.05 0.05 0.04 0.04 0.03 0.03 0.03 0.03 0.05 0.06 0.10 0.12 0.15 0.16 0.17 0.19 0.22 0.22 0.18
0.00 0.00 0.00 0.00 0.00 0.00 0.01 0.02 0.04 0.04 0.07 0.17 0.18 0.14 0.10 0.08 0.06 0.06 0.06 0.10 0.15 0.06 0.04 0.04 0.05 0.06 0.07 0.06 0.09 0.12 0.12 0.14 0.12 0.10 0.13 0.13 0.14 0.10 0.08 0.16 0.29 0.36 0.47 0.48 0.48 0.58 0.57 0.44 0.28
0.00 0.00 0.00 0.00 0.00 0.00 0.00 0.00 0.01 0.02 0.06 0.15 0.30 0.28 0.13 0.15 0.18 0.10 0.09 0.17 0.15 0.08 0.07 0.09 0.12 0.12 0.12 0.12 0.13 0.17 0.23 0.37 0.39 0.37 0.43 0.44 0.43 0.31 0.22 0.26 0.41 0.54 0.71 0.68 0.85 1.09 0.82 0.69 0.62
0.00 0.00 0.00 0.00 0.00 0.00 0.00 0.01 0.01 0.02 0.04 0.12 0.34 0.33 0.12 0.10 0.11 0.15 0.20 0.23 0.21 0.18 0.17 0.20 0.26 0.26 0.26 0.28 0.28 0.28 0.30 0.37 0.43 0.46 0.54 0.68 0.66 0.59 0.53 0.48 0.49 0.62 0.74 0.95 1.08 1.16 1.20 1.23 1.02
0.00 0.00 0.00 0.00 0.00 0.00 0.00 0.01 0.01 0.03 0.03 0.04 0.11 0.18 0.11 0.11 0.14 0.18 0.27 0.27 0.27 0.34 0.43 0.51 0.53 0.50 0.51 0.51 0.49 0.40 0.38 0.37 0.39 0.54 0.66 0.84 0.92 0.95 0.98 0.86 0.84 0.74 0.90 1.18 1.38 1.33 1.47 1.60 1.43
0.00 0.00 0.00 0.00 0.00 0.00 0.00 0.01 0.02 0.03 0.03 0.05 0.08 0.11 0.13 0.16 0.24 0.29 0.31 0.32 0.36 0.53 0.73 0.80 0.79 0.81 0.80 0.78 0.74 0.66 0.59 0.57 0.59 0.74 0.88 1.18 1.28 1.30 1.34 1.22 1.11 0.88 0.97 1.21 1.46 1.51 1.66 1.65 1.62
0.00 0.00 0.00 0.00 0.00 0.00 0.00 0.02 0.03 0.04 0.04 0.04 0.05 0.08 0.11 0.16 0.22 0.30 0.38 0.47 0.58 0.74 0.92 1.02 1.08 1.22 1.32 1.28 1.11 0.97 0.83 0.83 0.93 1.13 1.31 1.53 1.66 1.71 1.73 1.54 1.29 1.17 1.35 1.45 1.46 1.52 1.87 1.70 1.54
0.00 0.00 0.00 0.01 0.01 0.01 0.01 0.06 0.08 0.07 0.07 0.05 0.06 0.08 0.11 0.14 0.20 0.28 0.38 0.56 0.81 0.98 1.16 1.34 1.53 1.73 1.84 1.70 1.51 1.42 1.34 1.38 1.35 1.43 1.58 1.62 1.70 1.78 1.92 1.62 1.32 1.49 1.68 1.62 1.55 1.60 1.80 1.78 1.82
0.00 0.00 0.01 0.04 0.03 0.02 0.03 0.09 0.12 0.11 0.09 0.08 0.10 0.10 0.13 0.17 0.25 0.36 0.53 0.84 1.18 1.45 1.67 1.90 2.20 2.33 2.18 1.98 1.82 1.75 1.67 1.56 1.39 1.25 1.22 1.19 1.20 1.27 1.32 1.02 0.95 1.24 1.33 1.20 1.17 1.41 1.56 1.56 1.68
0.02 0.03 0.06 0.15 0.11 0.06 0.09 0.14 0.18 0.19 0.18 0.18 0.17 0.14 0.17 0.25 0.35 0.51 0.76 1.06 1.39 1.79 2.29 2.71 2.77 2.44 2.13 1.87 1.66 1.56 1.42 1.32 1.19 1.02 0.92 0.83 0.81 0.85 0.88 0.71 0.72 0.98 1.04 0.96 1.08 1.18 1.22 1.16 1.23
0.01 0.03 0.08 0.14 0.08 0.08 0.14 0.21 0.26 0.27 0.28 0.28 0.26 0.19 0.21 0.30 0.45 0.66 0.96 1.30 1.68 2.32 2.99 3.20 2.80 2.37 1.96 1.68 1.41 1.17 0.98 0.92 0.87 0.74 0.69 0.69 0.71 0.74 0.83 0.72 0.79 0.94 0.94 0.91 0.97 1.03 0.96 0.80 0.97
0.04 0.05 0.09 0.13 0.08 0.09 0.12 0.22 0.36 0.39 0.39 0.34 0.27 0.21 0.28 0.44 0.65 0.95 1.33 1.57 1.81 2.24 2.70 2.69 2.24 1.79 1.32 1.03 0.93 0.82 0.69 0.60 0.51 0.48 0.51 0.49 0.55 0.63 0.72 0.66 0.58 0.63 0.65 0.60 0.64 0.81 0.83 0.73 0.86
0.06 0.06 0.10 0.13 0.05 0.08 0.12 0.28 0.48 0.52 0.41 0.30 0.20 0.16 0.21 0.37 0.69 1.14 1.64 1.92 2.03 2.05 1.94 1.78 1.35 0.88 0.65 0.49 0.47 0.42 0.41 0.40 0.33 0.29 0.32 0.32 0.35 0.39 0.46 0.49 0.50 0.55 0.62 0.60 0.60 0.64 0.68 0.62 0.63
0.06 0.04 0.04 0.04 0.04 0.11 0.18 0.40 0.60 0.57 0.43 0.34 0.23 0.18 0.20 0.35 0.70 1.24 1.58 1.63 1.63 1.52 1.17 0.89 0.69 0.45 0.32 0.29 0.32 0.32 0.30 0.30 0.26 0.23 0.25 0.23 0.24 0.27 0.30 0.33 0.34 0.41 0.52 0.58 0.54 0.54 0.57 0.56 0.49
0.04 0.03 0.03 0.04 0.05 0.10 0.23 0.46 0.68 0.59 0.51 0.38 0.25 0.20 0.24 0.32 0.52 0.76 0.86 0.93 0.94 0.83 0.67 0.53 0.45 0.35 0.34 0.35 0.37 0.39 0.28 0.23 0.21 0.20 0.20 0.20 0.23 0.26 0.27 0.28 0.28 0.31 0.35 0.39 0.42 0.48 0.52 0.53 0.49
0.03 0.04 0.06 0.10 0.12 0.26 0.36 0.43 0.71 0.67 0.50 0.30 0.20 0.18 0.16 0.23 0.36 0.48 0.47 0.44 0.42 0.34 0.35 0.36 0.40 0.44 0.42 0.35 0.31 0.31 0.27 0.23 0.20 0.18 0.18 0.19 0.22 0.26 0.29 0.30 0.30 0.32 0.32 0.33 0.36 0.39 0.43 0.49 0.52
0.04 0.04 0.12 0.31 0.48 0.53 0.37 0.40 0.70 0.50 0.32 0.21 0.15 0.13 0.17 0.28 0.35 0.39 0.43 0.41 0.32 0.24 0.25 0.24 0.22 0.25 0.29 0.28 0.27 0.26 0.27 0.24 0.22 0.20 0.16 0.17 0.19 0.23 0.27 0.32 0.34 0.37 0.37 0.37 0.37 0.38 0.40 0.47 0.54
0.04 0.04 0.08 0.16 0.15 0.21 0.24 0.61 0.76 0.35 0.24 0.15 0.09 0.09 0.15 0.21 0.25 0.25 0.26 0.24 0.19 0.14 0.10 0.09 0.10 0.11 0.12 0.13 0.16 0.18 0.22 0.20 0.20 0.23 0.19 0.17 0.20 0.24 0.28 0.29 0.30 0.34 0.35 0.37 0.39 0.36 0.36 0.45 0.54
0.04 0.03 0.04 0.04 0.04 0.10 0.26 0.50 0.45 0.26 0.17 0.10 0.06 0.05 0.07 0.09 0.09 0.09 0.08 0.07 0.06 0.05 0.04 0.04 0.05 0.05 0.05 0.06 0.09 0.12 0.16 0.18 0.18 0.20 0.19 0.19 0.24 0.26 0.28 0.29 0.30 0.32 0.34 0.36 0.38 0.40 0.44 0.50 0.54
0.04 0.03 0.02 0.02 0.02 0.04 0.16 0.43 0.49 0.27 0.17 0.08 0.04 0.03 0.03 0.03 0.03 0.03 0.03 0.03 0.02 0.02 0.02 0.02 0.02 0.03 0.03 0.04 0.05 0.07 0.09 0.13 0.15 0.15 0.18 0.21 0.21 0.22 0.26 0.32 0.33 0.33 0.35 0.41 0.48 0.47 0.48 0.56 0.66
0.02 0.02 0.02 0.02 0.02 0.02 0.06 0.20 0.17 0.11 0.05 0.02 0.01 0.01 0.01 0.01 0.01 0.01 0.01 0.01 0.01 0.01 0.01 0.01 0.02 0.02 0.02 0.02 0.03 0.04 0.06 0.08 0.11 0.14 0.16 0.18 0.18 0.20 0.24 0.29 0.34 0.34 0.41 0.59 0.75 0.75 0.66 0.72 0.81
0.01 0.01 0.01 0.01 0.02 0.02 0.03 0.09 0.07 0.05 0.02 0.01 0.01 0.00 0.00 0.00 0.00 0.00 0.00 0.00 0.00 0.01 0.01 0.01 0.02 0.02 0.02 0.02 0.02 0.03 0.05 0.06 0.07 0.09 0.13 0.16 0.18 0.18 0.17 0.19 0.23 0.27 0.33 0.48 0.79 0.96 0.99 0.96 0.88